Weather in Vorob'evo

Russia / Vologda Oblast     59°37′37″N   40°53′20″E
temp.,
°C
wind,
m/s
gust,
m/s
humid.,
%
clouds,
%
prec.,
mm/h
press.,
hPa
HPBL,
m
13 may, thu
thu1300:00+13se25813 0.0 102368
03:00+12se27895 0.0 1023127
06:00+15ese258270 0.0 1022122
09:00+20se485775 0.0 1022548
12:00+20sse37625 0.0 10211100
15:00+22sse485337 0.4 10191805
18:00+19ese4967100 0.3 1017399
21:00+14e258796 0.4 101693
14 may, fri
fri1400:00+14se249999 4.2 1016190
03:00+13sw3895100 4.6 1016454
06:00+12sw37945 0.0 1017271
09:00+15sw3775100 0.0 1018581
12:00+19ssw475768 0.1 10181723
15:00+19s3655100 0.3 10171534
18:00+18s376796 0.1 1016552
21:00+13s24945 0.2 101677
15 may, sat
sat1500:00+12se239673 0.1 101649
03:00+12se31096100 0.4 1015261
06:00+14se41292100 0.8 1013415
09:00+18sse51178100 0.8 1012798
12:00+21sse476697 0.3 1011819
15:00+21ssw4774100 1.8 10091040
18:00+18se488498 1.9 1008396
21:00+15sse399627 7.1 1007341
16 may, sun
sun1600:00+14ssw413960 0.4 1008602
03:00+13ssw5139624 0.4 1008631
06:00+13ssw5129487 0.0 1009703
09:00+14sw5987100 0.0 1011737
12:00+16wsw4781100 0.1 1012791
15:00+18wsw466747 0.2 10121142
18:00+17wnw237477 0.1 1012672
21:00+12nw229349 0.7 101321
17 may, mon
mon1700:00+11nw239512 0.1 101452
03:00+10n23952 0.1 101651
06:00+12nnw12825 0.0 101788
09:00+18nw12546 0.0 1018656
12:00+21w124397 0.0 10181746
15:00+22sw1142100 0.0 10181835
18:00+20s125998 0.0 1018142
21:00+14ese2271100 0.0 101811